Weather History for Devils Lake, ND

Change the Weather History Date:

Wednesday, January 22, 2014

  Actual Average Record
Temperature  
Mean Temperature -1 °F -  
Max Temperature 12 °F 19 °F 39 °F (1990)
Min Temperature -14 °F 3 °F -31 °F (1963)
Degree Days  
Heating Degree Days 66    
Moisture  
Dew Point -18 °F    
Average Humidity 58    
Maximum Humidity 73    
Minimum Humidity 49    
Precipitation  
Precipitation 0.00 in - - ()
Sea Level Pressure  
Sea Level Pressure 30.37 in    
Wind  
Wind Speed 19 mph (NNW)    
Max Wind Speed 31 mph    
Max Gust Speed 38 mph    
Visibility 6 miles    
Events      
Averages and records for this station are not official NWS values.
T = Trace of Precipitation, MM = Missing Value Source: NWS Daily Summary

Daily Weather History Graph

Daily Weather History Graph

Search for Another Location

Airport:

Trip Planner

Search our weather history database for the weather conditions in past years. The results will help you decide how hot, cold, wet, or windy it might be!

Date:

Astronomy

Jan. 22, 2014 Rise Set
Actual Time 8:15 AM CST 5:19 PM CST
Civil Twilight 7:40 AM CST 5:54 PM CST
Nautical Twilight 7:02 AM CST 6:32 PM CST
Astronomical Twilight 6:25 AM CST 7:09 PM CST
Moon No Moon Rise 10:45 AM CST (1/22)
Length of Visible Light 10h 13m
Length of Day
9h 04m
Waning Gibbous, 65% of the Moon is Illuminated
Jan 22
Waning Gibbous
Jan 23
Last Quarter
Jan 30
New
Feb 6
First Quarter
Feb 14
Full

Hourly Weather History & Observations

Time (CST) Temp. Windchill Dew Point Humidity Pressure Visibility Wind Dir Wind Speed Gust Speed Precip Events Conditions
12:15 AM 10.4 °F -5.4 °F 1.4 °F 67% 29.98 in 10.0 mi WNW 13.8 mph - N/A   Overcast
12:35 AM 10.4 °F -5.4 °F 3.2 °F 73% 29.98 in 5.0 mi WNW 13.8 mph - N/A   Overcast
12:55 AM 12.2 °F -4.3 °F 3.2 °F 67% 29.98 in 9.0 mi NW 16.1 mph - N/A   Overcast
1:15 AM 12.2 °F -4.3 °F 3.2 °F 67% 29.99 in 3.0 mi NW 16.1 mph - N/A   Overcast
1:35 AM 12.2 °F -8.6 °F 3.2 °F 67% 30.00 in 1.2 mi NNE 27.6 mph 34.5 mph N/A   Overcast
1:55 AM 6.8 °F -14.3 °F -4.0 °F 61% 30.02 in 1.2 mi NNE 23.0 mph 31.1 mph N/A   Overcast
2:15 AM 5.0 °F -17.9 °F -5.8 °F 61% 30.03 in 1.5 mi NNE 26.5 mph 29.9 mph N/A   Overcast
2:35 AM 3.2 °F -18.1 °F -5.8 °F 66% 30.05 in 1.5 mi NNE 20.7 mph 29.9 mph N/A   Overcast
2:55 AM 3.2 °F -20.3 °F -5.8 °F 66% 30.06 in 1.5 mi North 26.5 mph - N/A   Overcast
3:15 AM 3.2 °F -21.1 °F -7.6 °F 61% 30.08 in 1.0 mi North 28.8 mph 33.4 mph N/A   Overcast
3:35 AM 1.4 °F -21.9 °F -7.6 °F 66% 30.10 in 0.8 mi North 24.2 mph 33.4 mph N/A   Overcast
3:55 AM -0.4 °F -25.2 °F -9.4 °F 66% 30.12 in 0.5 mi North 26.5 mph 32.2 mph N/A   Overcast
4:15 AM -0.4 °F -25.6 °F -11.2 °F 60% 30.14 in 0.8 mi North 27.6 mph 32.2 mph N/A   Overcast
4:35 AM -2.2 °F -26.7 °F -13.0 °F 60% 30.16 in 1.2 mi North 24.2 mph - N/A   Overcast
4:55 AM -2.2 °F -25.7 °F -13.0 °F 60% 30.17 in 1.2 mi North 21.9 mph - N/A   Overcast
5:15 AM -4.0 °F -30.9 °F -14.8 °F 60% 30.18 in 0.8 mi North 28.8 mph - N/A   Overcast
5:35 AM -5.8 °F -32.4 °F -16.6 °F 60% 30.20 in 0.8 mi North 26.5 mph 32.2 mph N/A   Overcast
5:55 AM -7.6 °F -35.7 °F -18.4 °F 59% 30.22 in 1.0 mi North 28.8 mph 34.5 mph N/A   Overcast
6:15 AM -7.6 °F -36.6 °F -20.2 °F 54% 30.23 in 1.0 mi North 31.1 mph 38.0 mph N/A   Overcast
6:35 AM -9.4 °F -38.6 °F -20.2 °F 59% 30.24 in 1.0 mi North 29.9 mph 33.4 mph N/A   Overcast
6:55 AM -9.4 °F -34.1 °F -20.2 °F 59% 30.27 in 2.5 mi North 19.6 mph - N/A   Mostly Cloudy
7:15 AM -9.4 °F -35.2 °F -20.2 °F 59% 30.29 in 1.8 mi North 21.9 mph - N/A   Overcast
7:35 AM -9.4 °F -34.1 °F -20.2 °F 59% 30.29 in 3.0 mi North 19.6 mph 27.6 mph N/A   Overcast
7:55 AM -9.4 °F -34.7 °F -22.0 °F 54% 30.30 in 2.0 mi North 20.7 mph - N/A   Overcast
8:15 AM -11.2 °F -38.2 °F -22.0 °F 59% 30.32 in 1.0 mi North 23.0 mph 29.9 mph N/A   Overcast
8:35 AM -11.2 °F -38.2 °F -22.0 °F 59% 30.33 in 1.8 mi North 23.0 mph 27.6 mph N/A   Overcast
8:55 AM -11.2 °F -35.8 °F -23.8 °F 54% 30.35 in 2.0 mi North 18.4 mph 26.5 mph N/A   Overcast
9:15 AM -11.2 °F -37.0 °F -23.8 °F 54% 30.36 in 2.0 mi North 20.7 mph - N/A   Overcast
9:35 AM -11.2 °F -37.0 °F -23.8 °F 54% 30.37 in 1.8 mi North 20.7 mph - N/A   Overcast
9:55 AM -11.2 °F -36.4 °F -23.8 °F 54% 30.39 in 2.5 mi North 19.6 mph - N/A   Overcast
10:15 AM -11.2 °F -37.6 °F -23.8 °F 54% 30.41 in 1.8 mi North 21.9 mph - N/A   Overcast
10:35 AM -11.2 °F -37.0 °F -23.8 °F 54% 30.42 in 2.0 mi North 20.7 mph - N/A   Overcast
10:55 AM -11.2 °F -38.2 °F -23.8 °F 54% 30.43 in 2.0 mi North 23.0 mph 26.5 mph N/A   Overcast
11:15 AM -11.2 °F -37.6 °F -23.8 °F 54% 30.43 in 1.8 mi North 21.9 mph - N/A   Overcast
11:35 AM -11.2 °F -38.2 °F -22.0 °F 59% 30.43 in 1.8 mi North 23.0 mph - N/A   Mostly Cloudy
11:55 AM -9.4 °F -33.5 °F -22.0 °F 54% 30.44 in 3.0 mi North 18.4 mph - N/A   Partly Cloudy
12:15 PM -9.4 °F -34.7 °F -23.8 °F 49% 30.44 in 4.0 mi North 20.7 mph - N/A   Scattered Clouds
12:35 PM -9.4 °F -33.5 °F -22.0 °F 54% 30.44 in 8.0 mi North 18.4 mph - N/A   Partly Cloudy
12:55 PM -9.4 °F -32.8 °F -20.2 °F 59% 30.45 in 10.0 mi NNW 17.3 mph - N/A   Clear
1:15 PM -9.4 °F -32.8 °F -20.2 °F 59% 30.45 in 10.0 mi NNW 17.3 mph - N/A   Clear
1:35 PM -7.6 °F -31.1 °F -20.2 °F 54% 30.45 in 10.0 mi NNW 18.4 mph - N/A   Clear
1:55 PM -7.6 °F -31.7 °F -20.2 °F 54% 30.45 in 9.0 mi NNW 19.6 mph - N/A   Clear
2:15 PM -7.6 °F -29.8 °F -20.2 °F 54% 30.46 in 9.0 mi NNW 16.1 mph - N/A   Clear
2:35 PM -7.6 °F -31.1 °F -20.2 °F 54% 30.46 in 10.0 mi NNW 18.4 mph - N/A   Clear
2:55 PM -5.8 °F -29.4 °F -18.4 °F 55% 30.45 in 8.0 mi NNW 19.6 mph - N/A   Clear
3:15 PM -5.8 °F -29.4 °F -18.4 °F 55% 30.45 in 8.0 mi NNW 19.6 mph - N/A   Clear
3:35 PM -5.8 °F -29.4 °F -18.4 °F 55% 30.46 in 10.0 mi NNW 19.6 mph - N/A   Clear
3:55 PM -5.8 °F -27.5 °F -18.4 °F 55% 30.48 in 10.0 mi NW 16.1 mph - N/A   Clear
4:15 PM -5.8 °F -27.5 °F -18.4 °F 55% 30.49 in 10.0 mi NW 16.1 mph - N/A   Clear
4:35 PM -5.8 °F -26.0 °F -18.4 °F 55% 30.49 in 10.0 mi NW 13.8 mph - N/A   Clear
4:55 PM -5.8 °F -26.8 °F -18.4 °F 55% 30.50 in 10.0 mi NW 15.0 mph - N/A   Clear
5:15 PM -5.8 °F -26.0 °F -18.4 °F 55% 30.51 in 10.0 mi NW 13.8 mph - N/A   Clear
5:35 PM -7.6 °F -27.5 °F -20.2 °F 54% 30.52 in 10.0 mi NW 12.7 mph - N/A   Clear
5:55 PM -7.6 °F -27.5 °F -20.2 °F 54% 30.52 in 10.0 mi NNW 12.7 mph - N/A   Clear
6:15 PM -9.4 °F -22.7 °F -20.2 °F 59% 30.54 in 10.0 mi NW 5.8 mph - N/A   Clear
6:35 PM -9.4 °F -28.9 °F -22.0 °F 54% 30.54 in 10.0 mi NW 11.5 mph - N/A   Clear
6:55 PM -9.4 °F -31.4 °F -20.2 °F 59% 30.55 in 10.0 mi NW 15.0 mph - N/A   Clear
7:15 PM -9.4 °F -28.9 °F -22.0 °F 54% 30.56 in 10.0 mi NW 11.5 mph - N/A   Clear
7:35 PM -9.4 °F -29.8 °F -22.0 °F 54% 30.56 in 10.0 mi NW 12.7 mph - N/A   Clear
7:55 PM -11.2 °F -30.1 °F -22.0 °F 59% 30.56 in 10.0 mi NW 10.4 mph - N/A   Clear
8:15 PM -11.2 °F -32.1 °F -22.0 °F 59% 30.56 in 10.0 mi NW 12.7 mph - N/A   Clear
8:35 PM -11.2 °F -32.9 °F -22.0 °F 59% 30.56 in 10.0 mi NW 13.8 mph - N/A   Clear
8:55 PM -11.2 °F -31.1 °F -22.0 °F 59% 30.57 in 10.0 mi WNW 11.5 mph - N/A   Clear
9:15 PM -11.2 °F -31.1 °F -23.8 °F 54% 30.58 in 10.0 mi WNW 11.5 mph - N/A   Clear
9:35 PM -11.2 °F -31.1 °F -23.8 °F 54% 30.58 in 10.0 mi NW 11.5 mph - N/A   Clear
9:55 PM -13.0 °F -30.0 °F -23.8 °F 59% 30.58 in 10.0 mi WNW 8.1 mph - N/A   Clear
10:15 PM -13.0 °F -31.3 °F -25.6 °F 53% 30.58 in 10.0 mi WNW 9.2 mph - N/A   Clear
10:35 PM -11.2 °F -30.1 °F -23.8 °F 54% 30.58 in 10.0 mi NW 10.4 mph - N/A   Clear
10:55 PM -13.0 °F -31.3 °F -23.8 °F 59% 30.58 in 10.0 mi NW 9.2 mph - N/A   Clear
11:15 PM -13.0 °F -32.4 °F -25.6 °F 53% 30.60 in 10.0 mi NW 10.4 mph - N/A   Clear
11:35 PM -14.8 °F -34.6 °F -25.6 °F 58% 30.60 in 10.0 mi NW 10.4 mph - N/A   Clear
11:55 PM -14.8 °F -34.6 °F -25.6 °F 58% 30.60 in 10.0 mi WNW 10.4 mph - N/A   Clear